PBO Station Position Time Series. Reference Frame : NAM14
Format Version,1.1.1
4-character ID,PNHG
Station name,Panhandle_Gap
Begin Date, 2021-06-24
End Date, 2022-09-20
Release Date, 2023-03-23
Reference position, 46.8590800975 North Latitude, -121.6426271521 East Longitude, 2091.98100 meters elevation,
Date, North (mm), East (mm), Vertical (mm), North Std. Deviation (mm), East Std. Deviation (mm),              Vertical Std. Deviation (mm), Quality,
2021-06-24,0.00, 0.00, 0.00, 4.47, 3.40, 15.57, suppf,
2021-06-25,-1.63, -5.51, -14.84, 2.08, 1.48, 7.08, suppf,
2021-06-26,-3.43, -5.39, -2.12, 2.06, 1.47, 7.01, suppf,
2021-06-27,-0.53, -8.75, -3.22, 2.07, 1.48, 7.06, suppf,
2021-06-28,0.52, -9.31, -8.65, 2.09, 1.49, 7.16, suppf,
2021-06-29,1.12, -11.06, -8.96, 2.08, 1.48, 7.06, suppf,
2021-06-30,1.68, -11.32, 0.39, 2.05, 1.48, 7.04, suppf,
2021-07-01,-0.66, -11.62, -9.66, 2.10, 1.52, 7.28, suppf,
2021-07-02,-1.53, -10.68, 3.86, 2.07, 1.49, 7.05, suppf,
2021-07-03,-2.66, -12.17, 2.92, 2.09, 1.48, 7.03, suppf,
2021-07-04,-2.55, -11.50, 2.04, 2.08, 1.48, 7.08, suppf,
2021-07-05,-2.16, -10.03, 6.75, 2.05, 1.46, 6.95, suppf,
2021-07-06,-1.83, -13.19, -0.74, 2.07, 1.47, 7.03, suppf,
2021-07-07,-0.87, -14.79, -7.12, 2.07, 1.49, 7.08, suppf,
2021-07-08,-1.35, -13.39, -0.84, 2.05, 1.46, 6.96, suppf,
2021-07-09,-1.47, -13.44, 2.29, 2.10, 1.50, 7.15, suppf,
2021-07-10,-2.19, -14.93, -7.52, 2.07, 1.49, 7.12, suppf,
2021-07-11,-3.71, -13.53, 0.89, 2.04, 1.47, 6.95, suppf,
2021-07-12,-2.53, -14.66, 3.50, 2.04, 1.46, 6.93, suppf,
2021-07-13,-1.10, -15.45, 3.39, 2.04, 1.46, 6.93, suppf,
2021-07-14,-3.53, -14.89, 4.56, 2.05, 1.47, 6.97, suppf,
2021-07-15,-2.60, -16.02, -0.45, 2.09, 1.50, 7.13, suppf,
2021-07-16,-2.67, -14.77, 5.51, 2.18, 1.56, 7.37, suppf,
2021-07-17,-2.13, -17.09, -4.80, 2.13, 1.50, 7.21, suppf,
2021-07-18,-0.05, -16.68, -16.98, 2.11, 1.48, 7.12, suppf,
2021-07-19,-0.48, -16.77, -7.51, 2.07, 1.48, 7.09, suppf,
2021-07-20,-2.78, -16.36, -5.77, 2.06, 1.48, 7.05, suppf,
2021-07-21,-2.98, -17.19, -1.21, 2.06, 1.47, 7.02, suppf,
2021-07-22,-4.19, -15.47, -0.32, 2.10, 1.52, 7.17, suppf,
2021-07-23,-3.92, -12.20, -0.68, 2.10, 1.52, 7.14, suppf,
2021-07-24,-5.10, -16.03, 9.59, 2.04, 1.46, 6.94, suppf,
2021-07-25,-3.63, -16.58, 3.92, 2.05, 1.47, 6.99, suppf,
2021-07-26,-4.60, -17.35, 0.69, 2.06, 1.47, 7.01, suppf,
2021-07-27,-2.62, -18.01, 1.19, 2.07, 1.48, 7.09, suppf,
2021-07-28,-3.18, -18.20, -7.01, 2.06, 1.48, 7.03, suppf,
2021-07-29,-0.02, -20.30, -14.39, 2.08, 1.51, 7.21, suppf,
2021-07-30,-3.96, -21.62, -1.94, 2.16, 1.52, 7.30, suppf,
2021-07-31,-3.26, -20.07, -3.89, 2.08, 1.48, 7.09, suppf,
2021-08-01,-4.28, -18.85, -1.23, 2.05, 1.46, 6.94, suppf,
2021-08-02,-4.83, -18.25, -2.09, 2.07, 1.48, 7.03, suppf,
2021-08-03,-3.32, -20.64, -6.48, 2.09, 1.49, 7.14, suppf,
2021-08-04,-6.44, -20.58, 6.09, 2.09, 1.51, 7.20, suppf,
2021-08-05,-6.05, -19.74, 3.73, 2.05, 1.48, 7.02, suppf,
2021-08-06,-4.56, -21.52, -11.92, 2.18, 1.52, 7.38, suppf,
2021-08-07,-10.03, -20.21, -26.60, 2.12, 1.52, 7.29, suppf,
2021-08-08,-10.79, -24.84, 15.66, 2.11, 1.49, 7.18, suppf,
2021-08-09,-6.23, -20.37, 7.55, 2.05, 1.47, 7.00, suppf,
2021-08-10,-4.94, -19.64, 7.79, 2.07, 1.48, 7.04, suppf,
2021-08-11,-8.11, -19.32, 7.89, 2.07, 1.47, 7.04, suppf,
2021-08-12,-4.72, -20.02, 0.62, 2.08, 1.48, 7.06, suppf,
2021-08-13,-5.55, -20.51, 4.65, 2.06, 1.47, 7.01, suppf,
2021-08-14,-4.45, -20.66, 3.42, 2.06, 1.47, 7.00, suppf,
2021-08-15,-4.74, -19.91, -12.10, 2.07, 1.48, 7.05, suppf,
2021-08-16,-6.76, -15.85, 8.25, 2.08, 1.49, 7.11, suppf,
2021-08-17,-8.60, -23.80, 13.20, 2.07, 1.47, 7.02, suppf,
2021-08-18,-6.92, -20.55, 6.04, 2.08, 1.47, 7.05, suppf,
2021-08-19,-6.61, -22.24, -4.38, 2.09, 1.51, 7.27, suppf,
2021-08-20,-4.09, -21.52, 5.83, 2.05, 1.47, 6.98, suppf,
2021-08-21,-5.40, -22.91, 7.67, 2.10, 1.53, 7.32, suppf,
2021-08-22,-6.50, -22.82, 11.38, 2.07, 1.50, 7.09, suppf,
2021-08-23,-4.21, -25.05, -3.29, 2.08, 1.51, 7.13, suppf,
2021-08-24,-4.84, -22.16, 1.80, 2.04, 1.47, 6.96, suppf,
2021-08-25,-5.34, -21.66, -0.81, 2.06, 1.47, 7.01, suppf,
2021-08-26,-4.82, -23.13, -0.95, 2.06, 1.48, 7.03, suppf,
2021-08-27,-5.07, -25.03, -1.43, 2.06, 1.47, 7.01, suppf,
2021-08-28,-6.47, -23.68, 3.58, 2.05, 1.46, 6.95, suppf,
2021-08-29,-6.56, -23.39, 3.93, 2.05, 1.47, 6.99, suppf,
2021-08-30,-7.24, -23.48, 7.29, 2.06, 1.48, 7.07, suppf,
2021-08-31,-3.22, -27.77, 3.43, 2.05, 1.48, 6.99, suppf,
2021-09-01,-6.68, -25.22, 4.92, 2.06, 1.47, 7.02, suppf,
2021-09-02,-6.18, -24.71, 6.62, 2.07, 1.50, 7.07, suppf,
2021-09-03,-7.27, -22.84, 10.23, 2.12, 1.52, 7.19, suppf,
2021-09-04,-7.03, -24.50, 1.34, 2.18, 1.54, 7.37, suppf,
2021-09-05,-13.72, -32.56, 2.95, 2.15, 1.51, 7.28, suppf,
2021-09-06,-6.43, -28.89, -3.19, 2.07, 1.48, 7.06, suppf,
2021-09-07,-6.84, -26.01, 10.76, 2.05, 1.47, 6.98, suppf,
2021-09-08,-3.96, -27.76, -2.09, 2.08, 1.49, 7.16, suppf,
2021-09-09,-4.94, -27.73, 7.29, 2.05, 1.48, 7.05, suppf,
2021-09-10,-4.80, -27.98, 6.71, 2.06, 1.49, 7.11, suppf,
2021-09-11,-9.92, -29.46, 17.14, 2.06, 1.49, 7.11, suppf,
2021-09-12,-7.18, -27.20, 2.70, 2.06, 1.48, 7.02, suppf,
2021-09-13,-6.40, -28.05, 6.12, 2.05, 1.47, 6.97, suppf,
2021-09-14,-5.16, -29.60, -3.12, 2.06, 1.47, 6.99, suppf,
2021-09-15,-5.39, -31.51, -6.81, 2.07, 1.50, 7.16, suppf,
2021-09-16,-6.85, -28.29, 7.54, 2.06, 1.48, 7.05, suppf,
2021-09-17,-11.72, -37.56, -6.94, 2.08, 1.51, 7.24, suppf,
2021-09-18,-5.52, -31.22, 21.13, 2.10, 1.49, 7.16, suppf,
2021-09-19,-4.63, -28.88, 29.40, 2.05, 1.46, 6.97, suppf,
2021-09-20,-9.83, -30.85, 12.47, 2.05, 1.48, 7.02, suppf,
2021-09-21,-7.88, -28.80, 5.87, 2.04, 1.47, 6.97, suppf,
2021-09-22,-9.16, -30.87, 3.76, 2.04, 1.47, 7.00, suppf,
2021-09-23,-7.06, -32.68, 7.10, 2.16, 1.58, 7.51, suppf,
2021-09-24,-9.15, -32.70, 6.17, 2.14, 1.55, 7.37, suppf,
2021-09-25,-7.95, -30.92, 13.08, 2.05, 1.47, 7.00, suppf,
2021-09-26,-8.27, -35.70, -1.96, 2.06, 1.49, 7.12, suppf,
2021-09-27,-8.07, -37.64, 9.41, 2.15, 1.51, 7.35, suppf,
2021-09-28,-7.99, -34.18, 25.68, 2.05, 1.47, 7.02, suppf,
2021-09-29,-6.66, -32.43, 17.56, 2.07, 1.47, 7.02, suppf,
2021-09-30,-12.65, -42.11, 0.99, 2.10, 1.49, 7.18, suppf,
2021-10-01,-10.08, -35.18, 8.69, 2.06, 1.47, 7.00, suppf,
2021-10-02,-8.02, -30.40, 8.77, 2.06, 1.47, 7.03, suppf,
2021-10-03,-12.59, -39.01, -0.02, 2.10, 1.50, 7.25, suppf,
2021-10-04,-10.79, -36.41, 7.30, 2.07, 1.48, 7.08, suppf,
2021-10-05,-8.03, -36.89, 8.07, 2.12, 1.51, 7.31, suppf,
2021-10-06,-9.21, -35.35, 16.26, 2.06, 1.47, 7.02, suppf,
2021-10-07,-6.77, -33.39, 34.35, 2.03, 1.46, 6.92, suppf,
2021-10-08,-8.44, -34.72, 12.10, 2.05, 1.47, 7.03, suppf,
2021-10-09,-9.83, -36.46, 9.98, 2.05, 1.48, 7.04, suppf,
2021-10-10,-7.35, -43.90, -9.55, 2.10, 1.51, 7.28, suppf,
2021-10-11,-9.82, -35.21, 22.11, 2.06, 1.47, 7.01, suppf,
2021-10-12,-9.95, -35.46, 14.82, 2.04, 1.46, 6.97, suppf,
2021-10-13,-10.46, -36.15, 15.56, 2.05, 1.47, 7.03, suppf,
2021-10-14,-12.01, -37.13, 22.31, 2.04, 1.46, 6.97, suppf,
2021-10-15,-12.95, -44.60, 0.80, 2.05, 1.47, 6.99, suppf,
2021-10-16,-14.09, -45.70, -4.92, 2.10, 1.48, 7.13, suppf,
2021-10-17,-6.31, -37.99, 6.95, 2.07, 1.48, 7.08, suppf,
2021-10-18,-7.67, -38.43, 10.75, 2.06, 1.48, 7.07, suppf,
2021-10-19,-7.51, -38.03, 3.79, 2.06, 1.47, 7.03, suppf,
2021-10-20,-8.55, -40.07, 10.48, 2.12, 1.55, 7.28, suppf,
2021-10-21,-8.76, -41.10, -1.37, 2.12, 1.53, 7.23, suppf,
2021-10-22,-10.33, -41.45, 14.54, 2.08, 1.47, 7.03, suppf,
2021-10-23,-11.29, -39.80, 19.55, 2.05, 1.47, 6.99, suppf,
2021-10-24,-2.27, -38.99, 62.09, 2.05, 1.51, 7.10, suppf,
2021-10-25,3.71, -41.46, 55.52, 2.07, 1.49, 7.13, suppf,
2021-10-26,-5.73, -43.07, 61.45, 2.06, 1.47, 6.99, suppf,
2021-10-27,-5.72, -43.09, 46.80, 2.15, 1.48, 7.20, suppf,
2021-10-28,-7.16, -40.03, 15.07, 2.15, 1.51, 7.32, suppf,
2021-10-29,-10.44, -44.96, 10.45, 2.15, 1.50, 7.27, suppf,
2021-10-30,-10.01, -40.62, 7.09, 2.13, 1.49, 7.17, suppf,
2021-10-31,-13.65, -39.75, 13.96, 2.13, 1.48, 7.15, suppf,
2021-11-01,-8.21, -40.18, 7.48, 2.13, 1.49, 7.18, suppf,
2021-11-02,-9.22, -42.93, 7.90, 2.14, 1.49, 7.19, suppf,
2021-11-03,-8.25, -51.43, -13.56, 2.15, 1.51, 7.32, suppf,
2021-11-04,-10.38, -44.16, 15.41, 2.18, 1.51, 7.34, suppf,
2021-11-05,-2.12, -39.52, 42.23, 2.11, 1.48, 7.11, suppf,
2021-11-06,-3.87, -42.77, 47.01, 2.10, 1.46, 6.98, suppf,
2021-11-07,-2.06, -43.43, 32.66, 2.13, 1.47, 7.09, suppf,
2021-11-08,-5.93, -44.98, 36.30, 2.05, 1.46, 6.96, suppf,
2021-11-09,-1.66, -43.16, 32.54, 2.07, 1.49, 7.11, suppf,
2021-11-10,-7.47, -41.58, 36.29, 2.04, 1.46, 6.93, suppf,
2021-11-11,-11.68, -46.65, 16.65, 2.12, 1.50, 7.25, suppf,
2021-11-12,-10.72, -50.31, -15.14, 2.17, 1.53, 7.36, suppf,
2021-11-13,-16.26, -52.90, -7.02, 2.18, 1.54, 7.37, suppf,
2021-11-14,-14.31, -47.70, -8.38, 2.23, 1.60, 7.74, suppf,
2021-11-15,-5.24, -47.43, 0.09, 2.13, 1.53, 7.36, suppf,
2021-11-16,-6.80, -45.03, 24.31, 2.09, 1.51, 7.15, suppf,
2021-11-17,-9.98, -41.95, 22.63, 2.04, 1.46, 6.93, suppf,
2021-11-18,-15.12, -51.93, -0.22, 2.08, 1.48, 7.08, suppf,
2021-11-19,-7.83, -44.26, 18.90, 2.06, 1.47, 7.00, suppf,
2021-11-20,-10.01, -43.14, 24.98, 2.06, 1.46, 6.98, suppf,
2021-11-21,-9.26, -43.27, 13.56, 2.05, 1.46, 6.97, suppf,
2021-11-22,-10.22, -48.59, -10.69, 2.06, 1.49, 7.11, suppf,
2021-11-23,-9.03, -48.51, -1.72, 2.07, 1.47, 7.06, suppf,
2021-11-24,-11.97, -45.05, 9.85, 2.05, 1.46, 6.94, suppf,
2021-11-25,-14.29, -52.36, -12.56, 2.10, 1.50, 7.26, suppf,
2021-11-26,-14.69, -49.71, -13.89, 2.15, 1.59, 7.57, suppf,
2021-11-27,-14.30, -49.64, -6.08, 2.11, 1.49, 7.19, suppf,
2021-11-28,-11.33, -51.60, -12.19, 2.13, 1.52, 7.40, suppf,
2021-11-29,-15.13, -53.88, 0.33, 2.09, 1.52, 7.30, suppf,
2021-11-30,-25.73, -61.74, -9.02, 2.13, 1.52, 7.36, suppf,
2021-12-01,-13.56, -61.26, -32.33, 2.15, 1.58, 7.66, suppf,
2021-12-02,-4.34, -58.93, -18.74, 2.17, 1.52, 7.44, suppf,
2021-12-03,-10.66, -56.59, -8.90, 2.21, 1.55, 7.56, suppf,
2021-12-04,-10.60, -52.14, -17.18, 2.15, 1.50, 7.31, suppf,
2021-12-05,-12.93, -52.64, 0.66, 2.15, 1.50, 7.33, suppf,
2021-12-06,-12.31, -53.65, -0.26, 2.13, 1.51, 7.30, suppf,
2021-12-07,-10.15, -52.42, 19.86, 2.15, 1.53, 7.46, suppf,
2021-12-08,-10.17, -56.56, 27.33, 2.15, 1.53, 7.45, suppf,
2021-12-09,-6.28, -50.37, 39.59, 2.21, 1.51, 7.29, suppf,
2021-12-10,-6.42, -49.26, 53.23, 2.25, 1.52, 7.34, suppf,
2021-12-11,-6.57, -55.57, 32.43, 2.11, 1.48, 7.17, suppf,
2021-12-12,-7.90, -55.56, 25.74, 2.10, 1.48, 7.16, suppf,
2021-12-13,-3.69, -52.40, 45.07, 2.09, 1.47, 7.06, suppf,
2021-12-14,-0.64, -50.14, 52.33, 2.10, 1.47, 7.11, suppf,
2021-12-15,-0.36, -46.92, 57.60, 2.13, 1.51, 7.25, suppf,
2021-12-16,1.64, -46.87, 65.97, 2.11, 1.50, 7.19, suppf,
2021-12-17,-2.04, -46.00, 59.51, 2.13, 1.51, 7.24, suppf,
2021-12-18,-4.04, -55.15, 45.14, 2.14, 1.54, 7.39, suppf,
2021-12-19,-3.36, -49.38, 50.02, 2.12, 1.50, 7.22, suppf,
2021-12-20,-3.71, -53.12, 39.82, 2.15, 1.53, 7.36, suppf,
2021-12-21,-7.53, -47.52, 60.09, 2.13, 1.51, 7.27, suppf,
2021-12-22,-8.20, -50.78, 40.68, 2.16, 1.53, 7.43, suppf,
2021-12-23,-5.31, -46.29, 58.47, 2.14, 1.52, 7.35, suppf,
2021-12-24,-5.83, -45.18, 58.01, 2.14, 1.52, 7.33, suppf,
2021-12-25,-3.36, -45.51, 54.46, 2.13, 1.51, 7.25, suppf,
2021-12-26,-4.44, -44.93, 65.02, 2.14, 1.52, 7.31, suppf,
2021-12-27,-4.11, -45.36, 62.37, 2.12, 1.49, 7.18, suppf,
2021-12-28,-3.76, -45.59, 60.53, 2.09, 1.47, 7.09, suppf,
2021-12-29,-4.53, -46.16, 63.29, 2.09, 1.47, 7.09, suppf,
2021-12-30,-5.72, -48.54, 58.52, 2.10, 1.48, 7.13, suppf,
2021-12-31,-6.02, -47.78, 50.81, 2.11, 1.49, 7.17, suppf,
2022-01-13,1.11, 45.61, 32.78, 2.24, 1.74, 8.59, suppf,
2022-01-14,1.12, 52.28, 35.17, 2.26, 1.74, 8.57, suppf,
2022-01-15,1.59, 53.15, 20.69, 2.25, 1.72, 8.47, suppf,
2022-01-16,2.63, 61.70, 46.20, 2.22, 1.70, 8.33, suppf,
2022-01-17,9.51, 54.38, 13.12, 2.26, 1.76, 8.76, suppf,
2022-01-18,11.75, 57.03, -0.67, 2.29, 1.79, 8.97, suppf,
2022-01-19,10.93, 60.92, 9.61, 2.27, 1.76, 8.74, suppf,
2022-01-20,8.31, 58.70, 15.21, 2.23, 1.69, 8.39, suppf,
2022-01-21,10.10, 64.17, 5.30, 2.24, 1.72, 8.51, suppf,
2022-01-22,11.00, 63.93, -12.86, 2.27, 1.77, 8.82, suppf,
2022-01-23,12.81, 65.43, -10.27, 2.24, 1.71, 8.50, suppf,
2022-01-24,10.57, 66.35, -6.97, 2.25, 1.69, 8.38, suppf,
2022-01-25,13.41, 67.14, -10.22, 2.23, 1.69, 8.38, suppf,
2022-01-26,11.36, 68.84, 3.41, 2.20, 1.65, 8.11, suppf,
2022-01-27,11.31, 70.52, 4.09, 2.12, 1.61, 7.82, suppf,
2022-01-28,11.92, 69.18, 9.05, 2.13, 1.62, 7.93, suppf,
2022-01-29,10.45, 71.31, 18.31, 2.10, 1.59, 7.73, suppf,
2022-01-30,10.01, 70.48, 5.04, 2.14, 1.61, 7.84, suppf,
2022-01-31,12.65, 70.15, 6.56, 2.22, 1.77, 8.65, suppf,
2022-02-01,13.16, 79.25, 19.66, 2.26, 1.92, 9.34, suppf,
2022-06-30,17.68, 46.63, -32.46, 4.64, 3.19, 15.42, suppf,
2022-07-01,8.56, 22.34, -17.98, 2.06, 1.48, 7.19, suppf,
2022-07-02,3.62, -1.42, -19.70, 2.07, 1.49, 7.29, suppf,
2022-07-03,-0.48, -6.13, -12.51, 2.04, 1.47, 7.15, suppf,
2022-07-04,-2.30, -7.42, -4.12, 2.14, 1.51, 7.43, suppf,
2022-07-05,-0.59, -9.84, -21.12, 2.15, 1.53, 7.50, suppf,
2022-07-06,-0.75, -16.35, -17.28, 2.08, 1.47, 7.16, suppf,
2022-07-07,-4.77, -14.88, -11.31, 2.04, 1.47, 7.14, suppf,
2022-07-08,-4.06, -17.33, -16.08, 2.04, 1.49, 7.22, suppf,
2022-07-09,-5.34, -14.84, -10.18, 2.05, 1.49, 7.22, suppf,
2022-07-10,-2.56, -17.61, -14.47, 2.07, 1.52, 7.44, suppf,
2022-07-11,-4.91, -18.96, -14.71, 2.02, 1.47, 7.09, suppf,
2022-07-12,-4.60, -18.79, -1.75, 2.01, 1.45, 6.98, suppf,
2022-07-13,-4.06, -19.00, -9.72, 2.03, 1.46, 7.09, suppf,
2022-07-14,-5.35, -18.98, 5.69, 2.07, 1.46, 7.09, suppf,
2022-07-15,-3.99, -22.27, -9.49, 2.10, 1.50, 7.29, suppf,
2022-07-16,-2.73, -23.47, -18.91, 2.04, 1.50, 7.28, suppf,
2022-07-17,-4.08, -21.04, -1.01, 2.00, 1.44, 6.93, suppf,
2022-07-18,-5.84, -21.61, 1.68, 1.99, 1.44, 6.89, suppf,
2022-07-19,-4.70, -21.91, -1.25, 2.01, 1.45, 6.98, suppf,
2022-07-20,-4.14, -22.86, -0.67, 2.01, 1.46, 7.01, suppf,
2022-07-21,-4.63, -23.03, -5.09, 2.05, 1.49, 7.22, suppf,
2022-07-22,-5.53, -21.27, 3.80, 2.00, 1.45, 6.95, suppf,
2022-07-23,-5.70, -22.27, 1.08, 1.99, 1.45, 6.93, suppf,
2022-07-24,-5.31, -23.40, 2.75, 2.00, 1.45, 6.97, suppf,
2022-07-25,-4.54, -23.11, 4.14, 1.98, 1.46, 6.96, suppf,
2022-07-26,-4.01, -23.55, 4.50, 1.99, 1.45, 6.93, suppf,
2022-07-27,-5.55, -24.00, -6.56, 2.01, 1.46, 6.99, suppf,
2022-07-28,-5.38, -24.13, 2.66, 1.97, 1.45, 6.88, suppf,
2022-07-29,-6.21, -24.90, -4.41, 2.02, 1.48, 7.11, suppf,
2022-07-30,-5.87, -23.57, 4.08, 2.00, 1.45, 6.97, suppf,
2022-07-31,-4.07, -28.27, -5.67, 1.98, 1.44, 6.86, suppf,
2022-08-01,-6.67, -31.46, -21.63, 2.02, 1.44, 6.96, suppf,
2022-08-02,-6.62, -28.18, 9.47, 2.05, 1.52, 7.32, suppf,
2022-08-03,-8.38, -25.67, 5.75, 2.02, 1.48, 7.04, suppf,
2022-08-04,-5.73, -30.00, -9.75, 2.09, 1.53, 7.40, suppf,
2022-08-05,-4.83, -27.56, -3.82, 1.98, 1.44, 6.86, suppf,
2022-08-06,-5.91, -26.66, 2.20, 2.00, 1.45, 6.92, suppf,
2022-08-07,-4.60, -26.48, 4.22, 1.99, 1.45, 6.90, suppf,
2022-08-08,-7.86, -26.42, 2.58, 2.04, 1.47, 7.08, suppf,
2022-08-09,-4.64, -28.37, 0.69, 2.00, 1.46, 6.97, suppf,
2022-08-10,-2.62, -28.20, -3.29, 2.04, 1.47, 7.08, suppf,
2022-08-11,-3.16, -28.19, 1.20, 2.08, 1.51, 7.24, suppf,
2022-08-12,-5.00, -29.10, -1.85, 2.07, 1.51, 7.20, suppf,
2022-08-13,-6.06, -28.57, 5.20, 2.02, 1.47, 7.03, suppf,
2022-08-14,-6.11, -28.24, 2.23, 1.99, 1.45, 6.89, suppf,
2022-08-15,-5.56, -27.98, 3.77, 1.97, 1.43, 6.80, suppf,
2022-08-16,-5.40, -27.93, 7.81, 2.00, 1.45, 6.89, suppf,
2022-08-17,-5.05, -29.86, 3.44, 2.02, 1.46, 7.02, suppf,
2022-08-18,-4.51, -29.22, 5.24, 1.99, 1.43, 6.82, suppf,
2022-08-19,-6.62, -29.52, 10.31, 2.02, 1.44, 6.85, suppf,
2022-08-20,-6.46, -31.09, 4.61, 2.01, 1.46, 6.99, suppf,
2022-08-21,-7.32, -30.84, 4.99, 2.01, 1.47, 7.03, suppf,
2022-08-22,-5.56, -30.13, 1.97, 2.01, 1.46, 6.98, suppf,
2022-08-23,-7.12, -30.08, 11.08, 2.14, 1.54, 7.41, suppf,
2022-08-24,-6.50, -30.46, 14.23, 2.14, 1.55, 7.42, suppf,
2022-08-25,-6.53, -30.80, 15.42, 2.05, 1.49, 7.14, suppf,
2022-08-26,-7.34, -32.13, 14.81, 2.04, 1.48, 7.07, suppf,
2022-08-27,-6.77, -34.22, 13.89, 2.07, 1.49, 7.18, suppf,
2022-08-28,-6.67, -32.28, 12.56, 2.04, 1.49, 7.10, suppf,
2022-08-29,-6.64, -31.38, 13.44, 2.01, 1.46, 6.89, suppf,
2022-08-30,-8.05, -31.41, 17.47, 1.99, 1.45, 6.85, suppf,
2022-08-31,-6.05, -32.88, 10.67, 2.03, 1.47, 7.03, suppf,
2022-09-01,-6.77, -31.39, 14.68, 2.00, 1.44, 6.82, suppf,
2022-09-02,-5.22, -31.20, 12.75, 2.00, 1.44, 6.83, suppf,
2022-09-03,-6.15, -31.68, 18.75, 1.99, 1.43, 6.78, suppf,
2022-09-04,-7.59, -33.26, 12.32, 2.04, 1.48, 7.08, suppf,
2022-09-05,-8.55, -35.46, 8.83, 2.01, 1.45, 6.90, suppf,
2022-09-06,-9.59, -32.26, 16.18, 2.00, 1.43, 6.80, suppf,
2022-09-07,-6.05, -35.27, 8.42, 2.02, 1.46, 6.96, suppf,
2022-09-08,-5.52, -34.96, 12.74, 2.07, 1.50, 7.16, suppf,
2022-09-09,-8.22, -32.27, 18.72, 2.04, 1.47, 6.97, suppf,
2022-09-10,-8.66, -32.44, 18.75, 2.03, 1.47, 6.95, suppf,
2022-09-11,-8.61, -32.78, 22.15, 2.04, 1.48, 7.02, suppf,
2022-09-12,-8.05, -35.49, 10.48, 2.08, 1.51, 7.19, suppf,
2022-09-13,-5.99, -37.72, 11.15, 2.07, 1.51, 7.22, suppf,
2022-09-14,-8.93, -34.24, 18.22, 2.08, 1.52, 7.17, suppf,
2022-09-15,-9.43, -34.94, 17.42, 2.06, 1.51, 7.11, suppf,
2022-09-16,-10.09, -34.75, 16.58, 2.05, 1.48, 7.02, suppf,
2022-09-17,-8.48, -35.27, 18.44, 2.01, 1.44, 6.84, suppf,
2022-09-18,-10.25, -36.23, 22.72, 2.02, 1.44, 6.89, suppf,
2022-09-19,-10.58, -35.28, 21.48, 2.02, 1.44, 6.90, suppf,
2022-09-20,-9.70, -34.71, 16.69, 2.00, 1.44, 6.82, suppf,
